Wind_Speed
41 41 41 41 42 42 43 43 44 46 47 48 49 49 50 51 52 53 54 54 55 56 57 58 59 60 61 62 62 63 64 64 65 66 67 67 68 69 69 70 71 72 73 73 74 75 75 76 76 77 77 77 77 78 78 78 79 79 79 80 80 80 80 81 81 81 81 81 82 82 82 82 82 83 83 83 83 84 84 85 85 85 86 86 86 86
41 41 41 41 42 43 44 44 45 46 47 48 49 50 51 51 52 53 54 55 56 57 58 59 59 60 61 62 63 63 64 65 66 66 67 68 68 69 70 71 72 72 73 74 74 75 75 76 76 77 77 78 78 78 79 79 80 80 80 81 81 81 82 82 82 82 83 83 83 83 84 84 84 85 85 85 86 86 86 87 87 87 88 88 88 88
41 41 42 42 42 43 44 45 46 46 47 48 49 50 51 52 53 53 54 55 56 57 58 59 60 61 62 62 63 64 64 65 66 67 67 68 69 70 71 71 72 73 73 74 75 75 76 76 77 77 78 78 78 79 79 80 80 81 81 82 82 82 83 83 83 84 84 85 85 85 86 86 87 87 88 88 89 89 90 90 90 91 91 91 91 91
41 41 42 42 43 44 45 45 46 47 47 48 49 50 51 52 53 54 55 56 57 58 59 59 60 61 62 63 63 64 65 66 66 67 68 69 69 70 71 72 72 73 74 74 75 75 76 76 77 77 78 78 79 79 80 80 81 81 82 82 83 83 84 84 85 86 86 87 87 88 89 89 90 91 91 92 92 93 93 94 94 95 95 95 95 95
41 41 42 43 43 44 45 45 46 47 48 49 50 50 51 52 53 54 55 56 57 58 59 60 61 62 62 63 64 64 65 66 67 68 68 69 70 70 71 72 72 73 73 74 74 75 76 76 77 77 78 79 79 80 80 81 82 82 83 83 84 84 85 86 87 87 88 89 90 91 91 92 93 94 94 95 96 96 97 97 98 98 98 98 98 98
41 41 42 43 44 44 45 45 46 47 48 49 50 51 52 53 54 55 56 57 58 59 60 60 61 62 63 63 64 65 66 66 67 68 69 69 70 71 71 72 72 73 73 74 74 75 76 76 77 78 78 79 80 80 81 82 82 83 83 84 85 85 86 87 88 90 91 92 93 93 94 95 96 97 97 98 98 99 99 99 99 99 99 98 98 98
41 41 42 43 44 44 45 46 46 47 48 49 50 51 52 53 54 55 56 57 58 59 60 61 62 63 63 64 64 65 66 67 67 68 69 69 70 70 71 71 72 72 73 73 74 75 76 76 77 78 79 79 80 81 82 82 83 84 84 85 86 87 88 89 90 92 93 94 95 96 97 98 98 99 99 99 99 98 97 97 96 96 95 95 95 95
41 42 42 43 44 44 45 46 46 47 48 49 50 51 52 53 54 55 56 57 58 59 60 62 63 63 64 64 65 65 66 67 67 68 68 69 69 70 70 71 71 72 72 73 74 75 76 76 77 78 79 80 81 82 83 84 84 85 86 87 88 89 90 91 93 94 95 96 98 98 99 99 99 99 98 97 95 94 93 91 90 89 89 89 89 90
42 42 42 43 44 44 45 46 47 47 48 50 51 52 53 54 55 56 57 58 59 60 61 62 63 64 64 65 65 65 66 66 67 67 68 69 69 70 70 70 71 71 72 73 74 75 76 77 77 78 79 81 82 83 84 85 86 87 87 88 89 91 92 93 95 96 97 99 99 100 99 99 97 96 94 92 89 87 85 84 83 82 82 82 82 83
42 42 43 43 44 44 45 46 47 48 49 50 51 52 53 54 55 56 57 58 59 60 61 62 62 63 64 65 65 65 66 66 67 67 68 68 69 69 70 70 70 71 72 73 74 75 76 77 78 79 80 81 83 84 85 86 87 88 89 90 91 93 94 96 97 98 99 100 99 99 97 95 93 90 87 85 82 80 78 77 75 75 75 75 75 76
42 42 43 43 44 45 45 46 47 48 49 50 51 52 53 54 55 56 58 59 60 60 61 62 63 63 64 65 65 66 66 66 67 68 68 68 69 69 70 70 70 71 72 73 74 75 76 77 78 79 81 82 84 85 86 87 89 90 91 92 93 95 96 98 99 99 99 99 97 95 93 90 87 84 81 78 76 74 72 70 69 69 68 68 69 69
42 42 43 43 44 45 46 47 48 49 50 51 52 53 54 55 55 56 58 59 60 60 61 62 63 64 64 64 65 66 66 66 67 67 68 69 69 69 70 70 71 71 72 73 74 75 76 77 79 80 81 83 84 86 87 89 90 91 92 94 95 96 98 99 99 99 98 96 93 90 87 84 81 78 75 73 71 69 67 65 64 63 63 63 63 63
42 42 43 44 45 45 46 47 48 49 50 51 52 53 54 55 56 57 58 59 60 60 61 62 63 64 64 65 65 65 66 66 67 67 68 69 69 70 70 70 71 72 73 74 75 76 77 78 79 81 82 84 85 87 88 90 91 92 93 95 96 97 98 98 98 96 94 91 88 85 81 78 75 73 71 69 67 65 63 62 60 59 59 58 58 58
42 42 43 44 45 46 47 48 49 50 51 52 53 54 55 56 57 57 58 59 60 61 61 62 63 64 65 65 65 66 66 67 67 68 68 69 69 70 70 71 71 72 73 74 75 76 77 78 79 81 83 84 86 88 89 91 92 93 94 96 97 97 97 96 94 92 89 86 83 80 77 74 71 69 67 65 64 62 60 59 58 57 56 56 55 55
42 42 43 44 45 46 47 48 49 50 51 52 53 54 55 56 57 58 58 59 60 61 61 62 63 64 65 65 66 66 67 67 67 68 69 70 70 70 70 71 71 72 73 73 75 76 77 78 80 81 83 85 87 88 90 91 93 94 95 96 96 96 94 92 90 87 84 81 78 75 73 71 69 67 65 63 61 60 58 57 56 55 54 54 53 53
42 43 44 45 46 47 48 49 49 50 51 53 54 55 55 56 57 58 58 59 60 61 61 62 63 64 65 66 67 67 67 68 68 68 68 69 70 71 70 70 71 72 73 74 75 76 77 79 80 82 83 85 87 89 90 92 93 94 95 95 94 93 90 88 85 82 79 77 74 73 71 69 67 65 63 62 60 58 57 56 55 54 53 53 52 52
42 43 44 45 46 47 48 49 50 51 52 53 54 55 56 57 57 58 59 59 60 61 61 62 62 63 64 66 67 68 68 68 68 69 69 69 70 70 70 70 70 71 73 74 75 76 77 79 80 82 84 85 87 89 91 92 93 93 93 92 91 88 86 83 80 78 75 74 72 71 69 68 66 65 63 61 59 57 56 54 53 53 52 52 51 51
43 43 45 46 47 48 49 50 50 51 52 53 54 55 56 57 58 58 59 60 60 61 61 62 63 63 64 66 67 69 69 68 69 69 69 69 69 69 69 69 70 71 72 73 75 76 77 78 80 82 83 85 87 89 90 91 92 92 91 89 87 84 81 79 76 74 73 72 70 69 68 67 66 64 63 61 59 57 55 53 52 51 51 51 51 51
43 44 45 46 47 48 49 50 51 52 53 54 55 56 57 57 58 59 59 60 60 61 62 62 64 65 65 66 68 69 69 69 69 69 69 68 68 69 69 69 70 71 72 73 74 76 77 78 80 82 83 85 87 88 89 90 90 89 87 85 82 80 77 75 74 72 71 70 70 69 68 66 65 64 62 60 58 56 54 53 52 51 50 50 50 50
44 44 45 46 47 48 49 50 51 52 53 54 55 56 57 58 58 59 60 60 61 61 62 63 64 65 66 67 68 69 70 69 69 69 68 68 68 68 68 68 69 70 72 73 74 75 77 78 80 81 83 85 86 87 88 88 87 86 84 81 78 76 74 73 72 71 71 70 69 68 67 66 65 63 62 60 58 56 54 52 51 50 49 49 49 49
44 45 46 47 48 49 50 51 52 53 54 55 56 56 57 58 58 59 60 60 61 62 63 64 64 65 66 67 68 69 69 69 69 69 68 68 67 67 68 68 69 70 71 73 74 75 76 78 79 81 83 84 85 86 86 86 84 82 80 77 75 73 72 71 71 71 71 70 70 69 68 66 65 63 62 59 57 55 53 51 50 49 49 48 48 48
44 45 46 47 48 49 50 51 52 53 54 55 56 56 57 58 58 59 60 61 61 62 63 63 64 65 66 67 67 68 69 69 68 68 68 67 67 67 67 68 68 69 71 72 73 75 76 77 79 80 82 83 84 84 84 83 81 79 77 74 73 71 71 71 71 71 71 71 71 70 69 67 65 64 62 59 57 54 52 50 49 48 48 47 47 47
45 46 47 48 49 50 51 52 53 54 55 55 56 57 58 58 59 59 60 61 62 62 63 64 65 66 67 67 67 68 69 69 69 68 67 66 66 66 67 67 68 69 70 71 72 74 75 77 78 79 81 82 82 82 81 80 78 76 74 73 71 71 71 71 72 72 72 72 72 71 70 68 66 64 62 59 57 54 51 49 48 47 47 46 46 45
45 46 47 48 49 50 51 52 53 54 55 56 56 57 58 59 60 60 61 62 62 63 64 64 65 66 66 67 67 68 68 68 68 68 67 66 65 65 66 67 68 69 70 71 72 73 74 76 77 78 79 80 80 79 78 77 76 74 73 72 71 71 71 72 73 73 74 74 73 73 71 70 68 66 63 60 57 54 51 49 47 46 46 45 44 44
45 46 47 48 50 51 52 52 53 54 55 56 57 58 59 60 61 61 62 62 63 63 64 64 64 64 65 66 66 67 67 68 67 66 66 65 65 65 66 66 67 68 69 70 71 72 73 75 76 77 78 78 78 77 76 74 73 72 72 71 71 72 72 73 73 74 74 75 74 74 73 71 69 67 64 61 58 55 51 49 47 46 45 44 43 43
46 47 48 49 50 51 52 53 53 54 55 56 57 58 59 60 61 61 62 62 62 63 63 63 64 64 65 65 65 66 67 67 66 66 65 65 65 65 66 66 67 67 68 69 70 71 72 74 75 76 77 77 76 75 74 72 71 71 71 71 71 72 72 73 74 74 75 75 75 75 74 72 70 68 65 62 59 55 52 49 47 46 45 44 43 42
46 47 48 49 50 51 52 53 54 54 55 56 57 58 59 60 60 61 61 62 62 63 63 63 63 64 64 64 64 65 65 66 66 65 64 64 64 64 65 66 66 67 67 68 69 70 71 72 74 75 75 75 75 74 73 71 70 70 70 70 71 71 72 73 74 75 75 75 76 75 74 73 71 68 66 63 60 56 53 50 48 46 45 44 43 41
46 47 48 49 50 51 52 53 54 55 55 56 57 58 59 60 60 60 61 62 62 62 62 63 63 63 63 63 63 64 64 65 65 64 64 64 63 63 64 65 66 66 67 67 68 69 70 71 72 73 74 74 74 73 72 71 70 69 69 69 70 70 71 72 73 74 75 75 76 75 74 72 70 68 66 63 60 57 53 50 48 46 45 44 43 41
47 48 49 50 51 51 52 53 54 55 56 56 57 59 59 60 60 60 61 62 62 62 62 62 62 62 62 62 63 63 63 64 64 64 64 63 63 63 64 65 65 66 67 67 68 68 69 70 71 72 73 73 73 72 71 70 69 69 68 68 68 69 70 70 71 72 73 74 75 75 74 72 70 67 65 62 60 57 54 50 48 46 45 44 42 41
47 48 49 50 51 51 52 53 54 55 56 57 58 59 60 60 60 60 61 61 61 61 61 62 62 62 61 62 62 62 63 63 63 63 63 62 63 63 64 64 65 66 66 67 68 68 68 69 70 71 72 72 72 71 70 70 69 68 68 68 67 68 68 68 69 70 71 72 73 73 72 70 68 65 63 61 59 56 53 50 47 46 44 43 42 41
47 48 49 50 51 51 52 53 54 55 56 57 58 59 60 60 61 61 61 61 61 61 60 61 61 61 61 60 60 61 62 63 63 63 62 62 62 63 63 63 64 66 66 67 67 68 68 69 69 70 70 71 71 71 70 69 68 68 67 67 67 67 67 67 68 68 69 70 70 70 70 68 65 63 60 58 56 54 51 48 46 45 44 43 42 41
47 48 49 50 51 52 52 53 54 55 56 57 58 59 59 60 60 60 60 60 60 60 60 60 60 60 60 60 60 60 61 62 62 62 62 62 62 62 62 63 63 65 66 67 67 68 68 69 69 70 70 70 70 70 69 68 68 67 67 67 66 66 66 66 67 67 68 69 69 69 67 65 63 60 57 55 53 51 48 46 44 43 43 42 42 41
48 49 49 50 51 52 53 54 55 55 56 57 58 59 59 60 60 60 60 60 59 59 59 59 59 59 59 60 60 60 60 61 62 62 62 62 62 62 62 62 63 64 65 67 67 68 69 69 70 70 70 70 69 69 69 68 68 67 66 66 66 66 66 66 67 67 68 68 68 68 66 63 60 57 54 51 49 47 45 43 42 41 42 42 42 41
48 49 49 50 51 52 53 54 55 55 56 57 58 58 59 59 59 59 59 59 59 58 58 58 58 58 59 59 59 60 60 61 61 62 62 61 61 61 62 62 63 64 65 66 67 68 69 70 70 70 71 71 70 69 69 68 68 67 66 66 66 66 67 67 68 68 69 69 68 67 65 62 58 54 50 47 45 43 41 40 40 40 40 41 41 41
48 49 50 51 51 52 53 54 55 55 56 57 57 58 58 59 59 58 58 58 58 58 58 57 57 57 58 58 59 59 60 61 61 62 62 61 61 61 61 62 62 63 65 66 67 68 69 70 70 71 71 72 71 70 69 68 68 67 67 67 67 67 68 68 69 70 70 70 69 67 65 61 57 52 48 44 41 39 38 38 38 38 39 40 40 40
48 49 50 51 52 52 53 54 55 55 56 56 57 58 58 58 58 58 58 57 57 57 57 57 57 57 57 57 58 59 59 60 61 61 61 61 61 61 61 61 62 63 64 66 67 68 69 70 71 71 72 72 72 71 70 70 69 68 68 68 68 68 69 69 70 71 71 71 70 68 65 61 56 51 46 42 39 37 36 36 37 37 38 39 39 38
48 49 50 51 52 53 53 54 54 55 55 56 57 57 57 57 57 57 57 57 57 56 56 56 56 57 57 58 58 58 59 60 61 61 61 61 61 61 61 62 62 63 64 66 67 68 69 70 71 72 72 72 72 72 71 71 70 70 69 69 69 69 70 70 71 71 72 72 71 69 66 61 56 50 45 41 38 36 36 36 36 37 37 37 37 36
49 50 51 51 52 52 53 54 54 55 55 56 56 57 57 57 57 57 56 56 56 56 56 56 56 56 57 58 58 59 59 60 60 61 61 61 61 61 61 62 63 64 65 66 67 68 69 70 71 72 72 73 73 72 72 72 71 71 70 70 70 70 70 71 71 72 72 72 71 70 66 61 55 50 44 40 38 36 36 36 36 36 36 36 35 33
49 50 51 51 52 52 53 53 54 54 55 56 56 56 57 56 56 56 56 55 55 55 55 55 55 56 56 57 58 59 60 60 60 61 61 61 61 61 62 62 63 64 65 66 67 68 69 70 71 71 72 73 73 73 73 73 73 72 72 72 71 71 71 71 72 72 72 72 72 70 66 61 55 49 44 40 38 37 36 36 36 35 35 34 32 29
49 50 51 51 52 52 53 53 54 54 55 56 56 56 56 56 56 56 55 55 55 55 55 55 55 55 56 57 58 58 59 60 60 60 61 61 62 62 62 62 63 64 65 66 67 68 69 70 71 72 72 73 73 73 73 74 74 74 74 73 73 72 72 72 72 72 72 72 72 70 66 61 54 48 43 40 38 37 37 36 35 34 33 31 29 25
49 50 50 51 52 52 53 53 54 54 55 55 56 56 56 55 55 55 55 55 54 54 54 54 54 55 55 56 57 58 59 59 60 60 60 61 61 62 62 62 63 64 65 66 67 68 69 70 70 71 72 73 73 74 74 74 74 75 75 74 74 73 72 72 71 72 72 72 72 70 67 61 54 48 43 40 38 37 37 36 35 33 31 29 26 22
49 50 50 51 51 52 53 53 54 54 55 55 55 55 55 55 54 54 54 54 54 54 53 53 53 54 55 56 56 57 58 58 59 60 60 61 61 62 62 62 63 64 64 65 66 67 68 69 70 70 71 72 73 74 74 75 75 76 75 75 75 74 74 73 72 72 71 72 72 70 67 61 54 47 42 39 38 37 36 35 33 31 29 26 22 18
49 49 50 50 51 52 52 53 53 54 54 54 54 55 55 54 54 54 53 53 53 53 53 53 53 53 54 55 56 57 57 58 59 59 60 60 61 61 62 62 63 64 64 65 66 67 68 69 69 69 70 71 73 73 74 75 76 76 75 75 75 74 74 73 73 72 71 71 71 70 66 60 53 47 42 39 37 36 35 33 32 29 26 23 19 14
48 49 50 50 51 52 52 52 53 53 54 54 54 54 54 54 54 53 53 52 52 52 52 52 52 53 53 54 54 55 56 57 58 59 60 60 61 61 62 62 63 64 64 65 66 67 68 68 68 69 70 71 72 73 74 75 76 76 75 75 74 73 73 72 72 72 71 71 70 68 65 59 52 46 41 38 36 35 33 31 29 27 24 20 15 11
48 49 49 50 50 51 51 52 52 53 53 53 53 54 54 53 53 52 52 51 51 51 51 51 52 53 53 53 54 55 56 57 58 59 59 60 61 61 61 62 63 63 64 65 65 66 66 67 68 68 69 70 71 72 73 74 75 76 75 75 74 73 73 73 72 71 71 70 69 67 63 57 51 45 40 37 34 33 31 29 27 25 21 17 12 9
48 48 49 49 50 50 51 51 52 52 53 53 53 53 53 52 52 51 51 51 50 51 51 51 52 52 52 53 54 55 55 56 57 58 59 60 61 61 61 62 62 63 64 64 65 66 66 66 67 67 68 69 70 71 72 73 75 75 75 75 74 73 72 72 72 71 71 70 68 66 61 55 49 43 39 35 33 30 29 27 25 23 19 14 9 9
47 48 49 49 50 50 51 51 51 52 52 52 52 52 52 51 51 50 50 50 50 50 50 51 51 52 52 53 54 54 55 56 57 58 59 59 60 61 61 62 62 63 63 64 65 65 66 66 66 67 67 68 69 70 72 73 74 75 75 74 74 73 72 71 71 71 70 69 67 64 59 53 47 42 37 34 31 28 26 25 24 21 16 11 8 10
47 48 48 49 50 50 50 51 51 51 51 51 51 51 51 50 50 49 49 49 49 49 50 50 51 52 52 53 54 55 55 56 57 57 58 59 60 60 61 61 62 63 63 63 64 64 65 65 65 66 66 67 69 70 71 72 73 74 75 74 74 73 72 71 71 70 69 68 65 61 56 51 45 40 36 32 28 25 23 22 21 19 14 8 8 11
47 48 48 49 49 50 50 50 50 50 50 50 50 50 50 49 49 48 48 49 49 49 50 50 51 52 52 53 54 55 56 56 57 57 58 59 59 60 60 61 61 62 62 63 63 63 64 64 64 64 65 67 68 70 71 72 73 74 74 75 74 73 73 72 70 69 68 66 63 58 53 48 43 38 34 31 26 23 20 20 19 17 12 7 9 11
47 48 48 49 49 49 50 50 50 50 49 49 49 49 49 49 48 48 48 48 48 49 50 50 51 52 52 53 54 55 56 56 57 58 58 59 59 60 60 61 61 61 62 62 62 62 62 63 63 64 65 66 67 69 71 72 73 74 74 75 75 74 73 71 70 68 66 63 60 55 50 45 40 36 32 28 25 21 19 18 17 14 9 7 10 11
47 48 48 49 49 49 49 49 49 49 49 49 48 48 48 48 48 48 48 48 48 49 49 50 51 52 52 53 54 55 55 56 57 58 58 59 59 60 60 60 61 61 61 61 61 61 61 61 62 63 64 66 67 69 70 72 73 74 75 75 75 74 73 71 69 66 63 60 56 51 46 41 37 33 29 26 23 19 17 16 15 12 7 8 11 11
Wind_Direction
288 289 291 292 293 295 296 297 298 299 300 300 301 302 303 304 304 305 305 306 307 307 307 308 308 308 308 308 308 309 309 309 309 308 308 308 307 307 307 306 306 306 305 305 305 305 304 304 304 303 303 302 301 301 300 299 299 298 297 297 296 296 295 294 293 293 292 291 290 289 288 287 286 285 283 282 281 279 278 277 275 274 273 271 270 268
289 291 292 293 295 296 297 298 299 300 301 302 303 303 304 305 305 306 307 307 307 308 308 308 309 309 309 309 309 309 310 309 309 309 309 308 308 308 307 307 307 307 307 306 306 306 305 305 304 303 303 302 302 301 300 300 299 299 298 298 297 297 296 295 295 294 293 292 291 290 289 288 287 286 285 283 282 281 279 278 276 275 273 272 270 269
291 292 293 295 296 297 298 299 300 301 302 303 304 304 305 306 307 307 308 308 309 309 309 309 309 310 310 310 310 310 310 310 310 310 309 309 309 309 308 308 308 308 307 307 306 306 305 305 304 304 303 302 302 301 301 300 300 300 299 299 298 298 297 297 296 295 294 294 293 292 291 290 289 287 286 285 283 282 281 279 277 276 274 272 271 269
292 293 294 296 296 297 299 300 301 302 303 304 305 306 306 307 308 309 309 309 310 310 310 310 310 310 311 311 311 311 311 311 311 310 310 310 310 310 309 309 309 308 308 307 306 306 305 305 304 304 303 303 302 302 301 301 301 300 300 300 299 299 298 298 297 296 296 295 294 293 292 291 290 288 287 286 285 283 282 280 278 277 275 273 272 270
292 294 295 296 297 298 300 301 302 303 304 305 306 307 308 308 309 309 310 310 310 311 311 311 311 311 311 311 311 312 312 312 311 311 311 311 311 310 310 309 309 308 308 307 306 306 305 305 304 304 303 303 303 302 302 302 301 301 301 301 300 300 299 299 298 297 296 295 295 294 293 292 290 289 288 287 285 284 283 281 279 278 276 274 272 270
293 294 296 297 298 299 301 302 303 304 305 306 307 308 308 309 310 310 311 311 311 311 311 311 312 312 312 312 312 312 313 313 312 312 312 312 311 310 310 309 309 308 307 307 306 306 305 305 305 304 304 304 303 303 303 302 302 302 302 301 301 300 300 299 299 298 297 296 295 294 294 293 291 290 289 288 287 285 284 282 280 278 277 275 272 270
294 295 296 297 299 300 301 302 304 305 306 307 308 308 309 310 310 311 311 311 312 312 312 312 312 312 313 313 313 313 313 313 313 313 312 312 311 310 310 309 308 308 307 307 306 306 306 305 305 305 305 304 304 304 303 303 303 303 302 302 302 301 301 300 299 299 298 297 297 296 295 294 293 292 291 289 288 287 285 283 281 279 277 275 273 270
294 295 297 298 299 301 302 303 304 306 307 308 308 309 310 310 311 311 312 312 312 313 313 313 313 313 313 314 314 314 314 314 313 313 312 311 311 310 310 309 308 308 307 307 307 306 306 306 306 306 305 305 305 305 304 304 304 304 303 303 303 302 302 301 301 300 299 299 298 297 296 296 295 294 293 291 290 288 287 285 282 280 278 275 273 270
295 296 297 299 300 301 303 304 305 306 307 308 309 310 310 311 311 312 312 312 313 313 314 314 314 314 314 314 314 314 314 314 313 313 312 311 311 310 310 309 308 308 308 307 307 307 307 307 307 307 306 306 306 306 305 305 305 305 305 305 304 304 303 303 302 302 301 300 300 299 298 298 297 296 295 293 292 290 288 286 283 281 278 276 273 270
295 297 298 299 300 302 303 305 306 307 308 308 309 310 310 311 312 312 313 313 313 314 314 314 314 314 314 315 315 315 314 314 313 313 312 311 311 310 310 309 309 308 308 308 308 308 308 307 307 307 307 307 307 306 306 306 306 306 306 306 306 306 305 304 304 303 303 302 302 301 300 300 299 298 297 295 294 292 290 287 284 282 279 276 273 271
296 297 299 300 301 302 304 305 306 307 308 309 309 310 311 312 312 313 314 314 314 314 315 315 314 314 314 315 315 315 315 314 314 313 312 312 311 311 310 310 309 309 309 309 309 308 308 308 308 308 308 308 308 308 308 308 308 308 308 308 308 307 307 306 306 305 305 304 304 303 303 302 301 300 299 297 296 294 291 289 286 283 280 277 275 272
296 298 299 300 302 303 304 305 306 307 308 309 310 311 311 312 313 313 314 314 315 315 315 315 315 315 314 315 315 315 315 314 314 313 313 312 312 311 311 310 310 310 310 310 309 309 309 309 309 309 309 309 309 309 309 309 310 310 310 309 309 309 308 308 307 307 306 306 306 305 305 304 303 302 301 300 298 296 293 290 288 285 282 279 276 274
297 298 299 301 302 304 305 306 307 308 309 310 311 312 312 313 313 314 314 315 315 315 315 315 315 315 315 315 315 315 315 315 314 314 313 313 312 312 311 311 311 311 310 310 310 310 310 310 310 310 311 311 310 310 311 311 311 311 311 311 310 310 309 309 309 308 308 308 308 307 307 306 306 305 304 302 300 298 295 293 290 286 284 281 278 276
297 299 300 302 303 304 305 307 308 309 310 311 311 312 313 313 314 314 315 315 315 315 315 315 314 314 315 315 315 315 315 315 315 314 314 313 313 312 312 312 312 311 311 311 311 311 311 312 312 312 312 312 312 312 312 312 312 312 312 312 312 311 311 311 310 310 310 310 310 310 309 309 308 307 306 304 302 300 297 295 292 289 286 283 280 278
298 299 301 302 304 305 306 307 308 309 310 311 312 312 313 313 314 314 315 315 315 315 315 315 315 314 314 315 315 316 316 316 315 315 314 314 313 313 313 313 313 312 312 312 312 312 313 313 313 313 313 313 313 313 314 314 314 314 314 314 313 313 313 312 312 312 312 312 312 312 311 311 310 309 308 306 304 302 299 296 293 290 287 285 282 279
299 300 302 303 304 305 306 308 309 310 311 311 312 312 313 313 314 314 315 315 315 315 315 315 315 315 314 315 315 316 316 316 316 315 315 314 314 313 313 314 313 313 313 313 313 313 314 314 314 314 315 315 315 315 315 315 316 316 315 315 315 315 314 314 314 314 315 315 314 314 314 313 312 311 309 308 305 303 300 297 294 291 289 286 283 280
299 301 302 304 305 306 307 308 309 310 311 311 312 312 313 313 314 314 315 315 315 315 315 315 315 315 315 315 315 316 316 316 316 316 316 315 315 314 314 314 314 314 314 314 314 314 315 315 315 316 316 316 317 317 317 317 317 317 317 317 316 316 316 316 317 317 317 317 317 316 315 315 314 312 311 309 307 304 301 298 295 292 289 286 284 281
300 301 303 304 305 306 307 308 309 310 311 312 312 312 313 313 314 314 314 315 315 315 315 315 315 315 315 315 316 316 317 317 317 317 316 316 315 315 315 315 315 315 315 315 315 315 316 316 317 317 318 318 318 319 319 319 319 319 319 318 318 318 318 319 319 319 319 319 318 318 317 316 315 313 312 310 308 305 302 299 296 293 290 287 284 281
301 302 303 305 306 307 308 309 310 311 311 312 312 312 313 313 314 314 314 314 315 315 315 315 315 316 316 316 316 316 317 317 317 317 317 316 316 316 315 316 316 316 316 316 316 316 317 318 318 319 319 320 320 320 321 321 321 321 320 320 320 321 321 321 321 321 321 321 320 319 318 317 316 314 313 311 309 306 303 300 297 294 291 288 285 282
301 302 304 305 306 307 308 309 310 311 311 312 312 312 313 313 314 314 314 314 315 315 315 315 316 316 316 316 316 317 317 317 317 317 317 317 317 316 316 316 317 317 317 317 317 318 318 319 320 321 321 322 322 322 322 323 323 323 323 323 323 323 323 324 324 324 323 323 322 321 320 318 317 315 313 312 310 307 304 301 298 295 292 289 286 283
302 303 304 305 307 308 309 309 310 311 311 312 312 312 313 313 313 314 314 314 315 315 315 316 316 316 316 317 317 317 317 317 317 317 318 318 317 317 317 317 317 317 317 318 318 319 320 321 322 322 323 324 324 325 325 325 325 325 325 325 325 325 326 326 326 325 325 325 324 323 321 320 318 316 314 312 310 308 305 302 299 296 293 291 288 285
302 304 305 306 307 308 309 309 310 311 311 312 312 313 313 313 313 314 314 314 315 315 316 316 316 316 317 317 317 317 317 317 317 318 318 318 318 318 318 318 318 318 318 319 320 321 322 323 323 324 325 326 327 327 327 327 327 327 327 327 327 327 328 327 327 327 327 326 325 324 323 321 319 317 315 313 311 308 306 303 300 297 295 292 289 286
303 304 305 306 307 308 309 310 310 311 312 312 312 313 313 313 314 314 314 315 315 316 316 316 317 317 317 317 317 317 317 317 318 318 318 319 319 318 318 318 319 319 319 320 321 322 323 324 325 326 327 328 329 329 329 329 328 328 328 329 329 329 329 329 328 328 328 327 327 326 324 322 320 318 316 314 312 309 306 304 301 298 296 293 290 288
303 304 306 307 308 308 309 310 310 311 312 312 313 313 314 314 314 314 314 315 315 316 316 316 317 317 317 317 317 317 317 317 318 319 319 319 319 319 319 319 319 320 321 322 323 324 325 326 327 328 329 330 331 331 331 330 330 330 330 330 330 330 330 329 329 329 328 328 327 326 325 323 321 319 317 315 313 310 308 305 302 299 297 294 292 289
304 305 306 307 308 309 309 310 310 311 312 312 313 313 314 314 314 314 314 315 315 316 316 316 316 317 317 317 317 317 317 318 318 319 320 320 320 320 320 320 320 321 322 323 324 325 326 327 328 330 331 332 333 333 333 332 332 331 331 331 331 331 330 330 329 329 329 328 328 327 326 324 322 320 318 316 314 312 309 306 303 301 298 296 293 291
304 305 306 307 308 309 309 310 310 311 312 312 313 313 313 313 314 314 314 315 315 316 316 316 316 317 317 317 317 317 317 318 319 320 320 321 321 321 320 320 321 322 322 323 325 326 327 328 330 331 333 334 335 335 334 334 333 332 332 332 331 331 330 329 329 329 329 328 328 327 326 325 323 321 319 317 315 313 310 308 305 303 300 298 295 292
305 306 307 307 308 309 309 310 310 311 311 312 312 313 313 313 314 314 314 315 315 316 316 316 317 317 317 317 317 317 318 318 319 320 321 321 321 321 321 321 321 322 323 324 326 327 329 330 331 332 334 335 336 336 336 335 334 333 333 332 331 330 330 329 329 328 328 328 328 327 326 325 323 321 319 317 315 313 311 309 306 304 302 299 297 294
305 306 307 308 308 309 309 310 310 311 311 312 312 313 313 313 314 314 315 315 315 316 316 317 317 317 317 317 317 317 318 319 320 321 322 322 322 321 321 321 322 322 324 325 326 328 330 331 332 333 335 336 337 338 337 336 335 334 333 332 331 330 329 329 328 328 328 328 328 327 326 325 323 321 319 317 315 314 312 310 307 305 303 300 298 295
306 306 307 308 308 309 310 310 311 311 312 312 312 313 313 314 314 315 315 315 316 316 316 317 317 317 317 317 318 318 318 319 320 321 322 322 322 322 322 322 322 323 324 326 327 329 331 332 333 334 336 337 338 338 338 337 336 335 333 332 331 330 329 328 328 328 328 328 328 327 326 325 323 320 318 317 315 313 311 310 307 305 303 301 299 296
306 307 307 308 309 309 310 310 311 311 312 312 313 314 314 315 315 315 315 316 316 316 317 317 317 317 317 318 318 319 319 320 321 322 322 322 322 322 322 323 323 324 325 326 328 329 331 333 334 335 336 337 338 339 339 338 337 335 334 332 331 330 329 328 328 328 328 328 328 327 326 324 322 320 318 316 314 313 311 309 307 305 303 301 299 297
306 307 308 308 309 309 310 310 311 311 312 313 314 314 315 315 315 316 316 316 316 316 316 317 317 317 318 318 319 319 320 320 321 322 323 323 323 323 323 323 324 324 326 327 329 330 332 333 334 335 337 338 338 339 339 338 337 336 335 333 332 331 330 329 328 328 328 328 328 327 326 324 322 320 318 316 315 313 311 310 307 305 303 301 300 299
307 308 308 309 309 310 310 311 311 312 313 313 314 315 315 315 316 316 316 316 316 316 317 317 317 318 318 319 319 320 320 321 322 322 323 323 323 323 323 324 324 325 326 328 329 331 332 334 335 336 337 338 338 339 339 339 338 337 336 334 333 332 331 330 329 329 329 329 329 328 327 325 323 321 319 317 316 314 312 310 308 305 303 302 301 300
308 308 309 309 310 310 311 311 312 313 313 314 315 315 315 316 316 316 316 316 316 316 317 317 317 318 319 319 320 321 321 321 322 323 323 323 323 323 324 324 325 326 327 328 330 331 333 334 335 336 337 338 338 339 339 339 338 338 337 336 335 334 333 332 331 331 331 331 331 330 328 326 324 322 320 319 317 315 313 310 308 305 303 302 302 302
308 309 309 310 310 311 311 312 312 313 314 314 315 315 316 316 316 316 316 316 316 316 317 317 318 318 319 320 321 321 322 322 322 323 323 323 324 324 324 325 325 326 327 329 330 331 333 334 335 336 337 338 339 339 339 339 338 338 337 337 336 335 335 334 333 333 333 333 332 332 330 328 326 323 321 320 318 316 313 310 307 305 303 303 303 303
308 309 310 310 311 311 312 312 313 314 314 315 315 315 315 315 315 316 316 316 316 317 317 318 318 319 320 321 321 322 322 322 323 323 324 324 324 324 324 325 326 326 327 329 330 331 333 334 335 336 337 338 339 339 339 339 338 338 338 337 337 336 336 335 335 335 335 335 334 333 332 329 327 324 322 320 318 316 313 310 307 305 303 303 304 304
309 309 310 310 311 312 312 313 313 314 314 315 315 315 315 315 315 316 316 316 317 317 318 318 319 320 320 321 322 322 323 323 323 324 324 324 324 325 325 325 326 327 328 329 330 331 333 334 335 336 337 338 338 339 339 339 338 338 338 337 337 336 336 336 336 336 336 336 336 335 333 331 328 325 323 321 318 316 313 310 307 305 304 304 304 305
309 310 310 311 311 312 313 313 314 314 314 315 315 315 315 315 316 316 316 317 317 318 318 319 320 321 321 322 322 323 323 324 324 324 324 324 325 325 325 326 326 327 328 329 330 331 332 333 334 335 336 337 338 339 339 339 338 338 338 337 337 336 336 336 336 336 336 336 336 336 334 332 329 326 323 320 318 315 312 310 307 306 305 305 305 305
309 310 311 311 312 313 313 313 314 314 314 315 315 315 315 316 316 316 317 317 318 318 319 320 321 322 322 323 323 324 324 324 324 325 325 325 325 325 326 326 326 327 328 329 330 331 332 333 334 335 336 337 338 338 338 338 338 338 338 337 337 336 336 335 335 335 336 336 337 336 335 333 330 326 323 320 318 315 313 310 309 307 306 306 305 305
310 311 311 312 312 313 313 314 314 314 314 315 315 315 316 316 316 317 317 317 318 319 320 321 322 322 323 323 324 324 325 325 325 325 325 325 325 326 326 326 327 327 328 329 330 331 332 333 334 334 335 336 337 338 338 338 338 338 337 337 337 337 336 335 335 335 335 336 336 336 335 333 330 327 323 320 318 315 313 312 310 309 308 307 306 304
310 311 312 312 313 313 313 313 314 314 314 315 315 315 316 316 316 317 317 318 319 320 321 322 323 323 324 324 324 325 325 325 325 325 325 325 325 326 326 326 327 327 328 329 329 330 331 332 333 334 335 336 337 337 338 338 338 338 337 337 337 337 336 335 334 334 334 335 336 336 335 334 331 327 324 320 318 316 314 313 312 311 310 308 306 302
311 311 312 312 313 313 313 313 314 314 314 315 315 315 316 316 316 317 317 318 319 320 322 323 323 324 324 324 324 325 325 325 325 325 325 325 325 326 326 326 326 327 327 328 329 330 331 332 333 333 334 335 336 337 338 338 338 338 338 337 337 336 336 334 334 333 334 334 335 336 335 334 331 328 324 321 319 316 315 314 313 313 312 310 307 300
311 311 312 312 312 313 313 313 314 314 314 315 315 315 315 316 317 317 318 319 320 321 322 323 324 324 324 324 325 325 325 325 325 325 325 325 325 326 326 326 326 327 327 328 329 329 330 331 332 333 334 334 335 336 337 338 338 338 338 337 337 336 336 334 334 333 333 334 335 335 335 334 331 328 325 322 319 317 316 315 314 314 313 311 306 295
311 311 312 312 312 313 313 313 314 314 314 314 315 315 316 316 317 318 319 320 321 321 322 323 324 324 324 324 324 324 324 325 325 325 325 325 325 326 326 326 326 326 327 327 328 329 330 331 332 332 333 334 334 335 336 337 338 338 338 338 337 336 335 334 333 333 333 333 334 335 334 333 331 328 325 322 320 318 317 315 314 314 313 310 304 286
311 311 311 312 312 313 313 313 313 314 314 314 315 315 316 317 317 318 319 320 321 322 322 323 323 324 324 324 324 324 324 324 325 325 325 325 325 326 326 326 326 326 326 327 328 329 330 331 331 332 332 333 334 335 335 336 337 338 338 338 337 336 334 333 333 332 332 333 334 334 334 333 331 328 325 323 321 319 317 315 314 313 312 308 298 269
310 311 311 311 312 312 313 313 313 314 314 314 315 315 316 317 318 318 319 320 321 322 322 323 323 324 324 324 325 325 325 325 325 325 325 325 325 326 326 326 325 326 326 327 327 328 329 330 331 331 332 333 333 334 335 335 336 337 338 338 337 336 334 333 333 332 332 333 333 334 333 332 331 328 326 323 321 319 316 314 314 313 311 305 287 245
310 310 311 311 312 312 312 313 313 314 314 314 315 316 316 317 318 319 320 320 321 322 322 323 323 324 324 324 325 325 325 325 325 325 325 325 326 326 326 326 325 325 326 326 327 328 329 330 330 331 331 332 333 333 334 334 335 336 337 337 337 336 335 334 333 332 332 332 333 333 333 332 330 328 326 324 322 319 316 314 313 313 310 299 269 223
309 310 310 311 311 312 312 313 313 314 314 315 315 316 316 317 318 319 320 320 321 322 322 323 323 324 324 325 325 325 326 326 326 325 325 325 326 326 326 326 326 325 326 326 327 327 328 329 330 330 331 331 332 332 333 333 334 335 336 337 337 336 335 334 333 332 332 332 333 333 333 332 330 328 326 324 322 319 316 313 313 313 309 291 246 208
309 310 310 311 311 312 312 313 313 314 314 314 315 315 316 317 318 319 319 320 321 322 322 323 323 324 325 325 325 326 326 326 326 326 326 326 326 326 326 326 326 326 326 326 327 327 328 329 329 330 330 330 331 331 332 332 333 334 335 336 337 336 336 334 333 333 332 333 333 333 332 331 329 328 326 325 323 319 315 313 313 312 306 277 224 199
309 309 310 311 311 312 312 313 313 313 314 314 315 315 316 317 318 318 319 320 321 322 323 323 324 325 325 326 326 326 326 326 326 326 326 326 326 326 326 326 326 326 326 326 327 327 328 328 329 329 329 329 330 330 331 332 333 334 335 336 337 337 336 335 334 333 333 333 333 333 332 330 329 327 326 325 324 320 316 313 312 310 300 256 209 194
309 309 310 311 311 312 312 312 313 313 314 314 315 315 316 317 317 318 319 320 321 322 323 324 325 325 326 326 326 326 326 326 326 326 326 326 326 326 326 326 326 326 326 326 327 327 328 328 328 329 329 329 330 330 331 331 332 333 335 336 337 337 337 336 335 334 333 333 333 332 331 330 329 327 326 326 325 322 318 314 312 307 289 232 200 191
309 309 310 311 311 311 312 312 313 313 313 314 314 315 316 316 317 318 320 321 322 323 324 324 325 325 326 326 326 326 327 327 326 326 326 327 327 327 327 327 326 326 326 327 327 327 327 328 328 329 329 330 330 330 331 331 332 333 334 336 337 338 337 337 336 335 334 333 333 332 331 330 329 328 327 326 326 323 319 315 311 303 271 212 193 189
Height
5680 5679 5678 5678 5677 5676 5675 5674 5673 5672 5670 5668 5667 5666 5664 5662 5660 5658 5657 5655 5653 5651 5648 5646 5644 5642 5639 5637 5635 5633 5631 5628 5626 5623 5621 5618 5615 5612 5609 5607 5604 5601 5598 5595 5592 5589 5586 5584 5581 5578 5576 5574 5571 5569 5567 5564 5562 5560 5557 5555 5553 5551 5549 5547 5544 5542 5540 5538 5536 5534 5532 5531 5529 5527 5526 5524 5523 5522 5520 5519 5518 5517 5516 5516 5516 5515
5677 5676 5675 5675 5674 5673 5672 5671 5670 5668 5667 5665 5663 5662 5660 5658 5656 5654 5652 5651 5649 5647 5644 5642 5640 5637 5635 5633 5631 5628 5626 5623 5621 5618 5615 5612 5610 5607 5604 5601 5597 5594 5591 5588 5585 5582 5580 5577 5574 5572 5569 5567 5564 5562 5559 5557 5555 5552 5550 5547 5545 5543 5541 5538 5536 5534 5532 5529 5527 5525 5523 5521 5519 5517 5515 5513 5512 5511 5509 5508 5507 5506 5505 5504 5504 5504
5675 5673 5672 5672 5671 5670 5669 5667 5666 5665 5663 5661 5659 5658 5656 5654 5652 5650 5648 5646 5644 5642 5640 5638 5635 5633 5631 5628 5626 5624 5621 5619 5616 5613 5610 5607 5604 5601 5597 5594 5591 5588 5585 5582 5579 5577 5573 5571 5568 5565 5563 5560 5557 5555 5552 5550 5547 5545 5542 5540 5537 5535 5532 5530 5527 5525 5522 5520 5517 5515 5513 5511 5508 5506 5504 5502 5501 5499 5497 5496 5494 5493 5492 5492 5492 5491
5672 5671 5670 5669 5668 5667 5666 5664 5663 5661 5660 5658 5656 5654 5652 5650 5648 5646 5644 5642 5640 5637 5635 5633 5631 5629 5626 5624 5622 5619 5617 5614 5611 5608 5605 5601 5598 5595 5592 5588 5585 5582 5579 5576 5573 5570 5567 5565 5562 5559 5556 5553 5551 5548 5545 5542 5540 5537 5535 5532 5529 5527 5524 5521 5518 5515 5512 5510 5507 5505 5502 5500 5497 5495 5493 5491 5488 5486 5484 5483 5481 5480 5479 5478 5478 5477
5670 5668 5667 5666 5665 5663 5662 5661 5659 5658 5656 5654 5652 5650 5648 5646 5644 5642 5640 5638 5636 5633 5631 5629 5627 5624 5622 5620 5617 5614 5612 5609 5606 5602 5599 5596 5592 5589 5586 5583 5580 5577 5573 5571 5567 5565 5562 5559 5556 5553 5550 5547 5544 5541 5538 5535 5532 5530 5527 5524 5522 5519 5516 5512 5509 5506 5503 5500 5497 5494 5491 5488 5486 5483 5480 5478 5475 5473 5471 5468 5467 5465 5464 5463 5462 5462
5667 5666 5664 5663 5662 5660 5659 5657 5656 5654 5652 5650 5648 5646 5644 5642 5640 5638 5636 5634 5632 5629 5627 5624 5622 5620 5617 5615 5612 5610 5607 5604 5600 5597 5594 5590 5587 5584 5581 5577 5574 5571 5568 5565 5562 5559 5556 5553 5550 5547 5543 5540 5537 5534 5531 5528 5525 5522 5520 5517 5514 5511 5507 5504 5500 5497 5493 5490 5487 5483 5480 5477 5474 5471 5467 5464 5462 5459 5456 5454 5452 5450 5448 5447 5446 5446
5663 5662 5661 5660 5658 5657 5656 5654 5652 5651 5649 5647 5645 5642 5641 5638 5637 5634 5632 5630 5627 5625 5622 5620 5617 5615 5613 5610 5608 5605 5602 5599 5595 5592 5589 5585 5582 5579 5576 5572 5569 5566 5562 5559 5556 5553 5550 5547 5543 5540 5537 5533 5530 5527 5524 5521 5518 5515 5512 5509 5506 5502 5499 5495 5491 5487 5483 5479 5475 5472 5468 5464 5461 5457 5454 5450 5447 5444 5441 5438 5436 5434 5432 5431 5430 5430
5660 5659 5658 5657 5656 5654 5652 5651 5649 5647 5645 5643 5641 5639 5637 5635 5633 5631 5628 5626 5623 5621 5618 5615 5612 5610 5608 5606 5603 5601 5597 5594 5591 5587 5584 5581 5577 5574 5571 5567 5564 5561 5557 5554 5551 5547 5544 5541 5537 5534 5530 5527 5523 5519 5516 5513 5510 5507 5504 5501 5497 5494 5490 5485 5481 5477 5472 5468 5464 5460 5456 5452 5447 5444 5440 5436 5433 5429 5426 5423 5421 5419 5417 5416 5415 5414
5657 5656 5655 5654 5653 5651 5649 5647 5646 5644 5642 5640 5638 5636 5634 5632 5629 5627 5625 5622 5619 5617 5614 5611 5608 5605 5603 5601 5599 5597 5593 5590 5587 5584 5580 5577 5573 5570 5566 5563 5559 5556 5552 5549 5546 5542 5538 5535 5532 5528 5524 5520 5516 5512 5508 5505 5502 5499 5496 5492 5488 5484 5480 5475 5471 5466 5461 5457 5452 5447 5443 5438 5434 5430 5426 5423 5419 5416 5413 5410 5407 5405 5403 5402 5401 5400
5654 5653 5652 5651 5649 5648 5646 5644 5642 5640 5639 5637 5634 5632 5631 5628 5626 5623 5620 5618 5615 5613 5610 5607 5605 5602 5598 5596 5594 5592 5589 5586 5583 5580 5576 5572 5569 5565 5562 5558 5555 5551 5547 5544 5541 5537 5533 5530 5526 5522 5518 5513 5509 5505 5501 5497 5494 5491 5487 5483 5479 5474 5470 5465 5460 5455 5450 5445 5440 5435 5430 5426 5421 5417 5414 5410 5407 5403 5401 5398 5395 5393 5391 5389 5388 5387
5651 5650 5649 5647 5646 5644 5643 5641 5639 5637 5635 5633 5631 5629 5627 5625 5623 5620 5617 5614 5611 5609 5606 5603 5601 5598 5595 5592 5590 5588 5586 5582 5578 5575 5572 5568 5564 5561 5557 5554 5550 5547 5543 5539 5536 5532 5528 5524 5520 5516 5512 5507 5502 5497 5493 5490 5486 5482 5478 5474 5469 5464 5459 5454 5449 5444 5439 5433 5428 5423 5418 5414 5410 5406 5402 5399 5396 5392 5390 5387 5385 5382 5381 5379 5377 5377
5648 5647 5646 5644 5642 5641 5639 5637 5635 5633 5632 5629 5627 5625 5623 5621 5619 5617 5613 5610 5607 5605 5602 5599 5596 5593 5592 5589 5586 5583 5581 5578 5575 5571 5567 5563 5559 5556 5552 5549 5545 5542 5538 5534 5530 5527 5522 5518 5514 5510 5505 5500 5495 5490 5486 5482 5478 5474 5470 5465 5460 5455 5449 5444 5438 5433 5427 5422 5417 5412 5408 5403 5399 5396 5392 5389 5386 5383 5380 5377 5375 5373 5371 5370 5368 5367
5645 5644 5642 5641 5639 5637 5636 5634 5632 5630 5628 5626 5623 5621 5618 5617 5615 5612 5610 5607 5604 5602 5598 5595 5591 5588 5586 5585 5582 5580 5577 5574 5570 5567 5563 5558 5555 5551 5548 5544 5540 5537 5533 5529 5524 5521 5517 5512 5508 5503 5498 5494 5488 5483 5479 5475 5471 5467 5462 5457 5451 5445 5440 5434 5428 5422 5417 5412 5407 5403 5398 5394 5390 5387 5383 5380 5377 5374 5371 5369 5367 5365 5363 5361 5360 5359
5642 5640 5639 5637 5635 5633 5632 5630 5628 5626 5624 5622 5620 5617 5615 5612 5610 5608 5606 5603 5600 5597 5595 5592 5588 5585 5582 5580 5578 5576 5573 5570 5566 5562 5558 5554 5550 5547 5543 5539 5535 5531 5528 5523 5519 5514 5511 5507 5502 5497 5492 5487 5482 5477 5472 5467 5463 5458 5453 5448 5442 5436 5430 5424 5419 5413 5408 5403 5398 5394 5390 5386 5382 5379 5375 5372 5369 5366 5363 5361 5359 5357 5355 5353 5352 5351
5638 5637 5635 5633 5632 5630 5628 5627 5625 5622 5620 5618 5616 5614 5611 5608 5606 5604 5602 5599 5596 5593 5591 5587 5584 5581 5577 5575 5573 5571 5568 5566 5562 5558 5554 5549 5545 5541 5538 5534 5530 5526 5522 5518 5514 5509 5504 5501 5496 5491 5486 5481 5475 5470 5465 5460 5455 5451 5445 5439 5433 5427 5421 5416 5410 5405 5400 5395 5390 5386 5382 5378 5375 5372 5368 5365 5362 5359 5356 5354 5352 5350 5348 5346 5345 5344
5635 5633 5631 5630 5628 5626 5625 5623 5621 5619 5617 5615 5612 5610 5607 5605 5602 5600 5598 5595 5592 5589 5587 5584 5580 5577 5573 5570 5568 5567 5564 5561 5557 5554 5551 5545 5540 5536 5533 5530 5526 5521 5517 5513 5508 5504 5499 5495 5490 5485 5480 5475 5469 5463 5458 5453 5448 5442 5437 5431 5425 5419 5413 5407 5402 5397 5392 5387 5383 5379 5375 5372 5368 5365 5362 5358 5355 5352 5350 5347 5345 5343 5341 5339 5338 5337
5631 5630 5628 5626 5624 5622 5621 5620 5618 5616 5613 5611 5608 5606 5603 5601 5598 5596 5593 5591 5588 5585 5582 5579 5577 5573 5569 5565 5562 5561 5560 5557 5553 5550 5546 5541 5536 5531 5528 5525 5521 5517 5512 5507 5503 5499 5494 5490 5485 5479 5474 5468 5462 5457 5451 5446 5440 5435 5429 5423 5417 5411 5406 5400 5395 5390 5385 5381 5377 5373 5369 5365 5362 5358 5355 5352 5349 5346 5343 5341 5338 5336 5334 5333 5332 5330
5628 5627 5625 5623 5621 5619 5617 5616 5614 5612 5610 5607 5605 5602 5599 5597 5594 5592 5589 5587 5584 5581 5578 5575 5572 5569 5566 5562 5558 5555 5554 5552 5548 5545 5542 5537 5532 5527 5523 5520 5516 5512 5507 5503 5498 5493 5489 5485 5480 5474 5469 5462 5456 5450 5444 5439 5433 5427 5422 5416 5410 5404 5398 5393 5388 5384 5379 5375 5371 5367 5363 5359 5356 5352 5349 5346 5343 5340 5337 5335 5332 5330 5328 5327 5325 5324
5624 5623 5622 5620 5618 5616 5614 5612 5610 5608 5606 5604 5601 5598 5596 5593 5590 5588 5585 5582 5580 5577 5574 5570 5567 5564 5562 5558 5554 5551 5549 5547 5543 5540 5537 5533 5528 5523 5519 5515 5512 5507 5503 5498 5494 5489 5484 5479 5474 5469 5463 5457 5451 5444 5438 5432 5426 5420 5414 5409 5403 5397 5392 5387 5382 5378 5374 5370 5366 5362 5358 5354 5350 5347 5343 5340 5337 5334 5331 5329 5327 5324 5322 5321 5319 5318
5621 5620 5618 5617 5614 5612 5610 5608 5607 5605 5602 5600 5597 5595 5592 5589 5586 5583 5581 5578 5575 5572 5569 5566 5563 5559 5557 5553 5550 5546 5544 5541 5538 5536 5532 5529 5524 5519 5514 5511 5507 5503 5499 5494 5489 5484 5480 5474 5469 5463 5457 5452 5445 5438 5432 5426 5419 5414 5408 5402 5397 5392 5387 5382 5377 5373 5369 5365 5361 5357 5352 5349 5345 5341 5337 5334 5331 5328 5325 5323 5321 5318 5316 5315 5313 5312
5617 5616 5615 5613 5611 5609 5607 5605 5603 5601 5598 5596 5593 5591 5588 5585 5582 5579 5577 5574 5571 5568 5565 5562 5558 5555 5552 5549 5545 5542 5539 5536 5533 5531 5527 5524 5520 5515 5511 5507 5503 5499 5494 5489 5484 5480 5475 5470 5464 5458 5452 5446 5439 5432 5426 5419 5413 5407 5402 5397 5391 5386 5382 5377 5372 5368 5364 5360 5355 5351 5347 5343 5339 5336 5332 5329 5326 5322 5320 5317 5315 5312 5311 5309 5307 5306
5614 5612 5611 5609 5607 5606 5603 5601 5599 5597 5594 5592 5590 5587 5584 5581 5578 5575 5572 5570 5567 5563 5560 5557 5553 5550 5547 5544 5540 5537 5534 5531 5529 5526 5523 5520 5515 5511 5506 5502 5499 5495 5491 5486 5480 5475 5470 5465 5459 5453 5447 5441 5434 5427 5420 5414 5407 5402 5397 5392 5387 5382 5377 5372 5368 5363 5359 5354 5350 5346 5342 5338 5334 5330 5327 5323 5320 5317 5314 5312 5309 5307 5305 5303 5301 5300
5611 5609 5607 5605 5603 5602 5600 5597 5595 5592 5590 5588 5585 5583 5580 5577 5574 5571 5568 5565 5562 5559 5556 5552 5549 5545 5542 5539 5536 5532 5529 5526 5524 5521 5518 5515 5512 5507 5502 5498 5494 5490 5486 5482 5476 5471 5465 5460 5454 5448 5442 5436 5429 5422 5415 5409 5402 5397 5392 5387 5382 5377 5372 5367 5363 5358 5354 5349 5345 5341 5336 5332 5328 5325 5321 5318 5315 5312 5309 5307 5304 5302 5300 5297 5296 5294
5607 5606 5604 5602 5600 5598 5596 5593 5591 5589 5587 5584 5582 5578 5576 5573 5570 5567 5564 5561 5558 5555 5552 5548 5545 5541 5537 5534 5531 5527 5524 5522 5519 5516 5513 5510 5507 5503 5498 5494 5490 5486 5482 5477 5472 5467 5462 5456 5450 5444 5438 5432 5425 5418 5411 5404 5398 5392 5387 5382 5377 5372 5367 5363 5358 5353 5348 5344 5339 5335 5331 5327 5322 5319 5316 5312 5309 5307 5304 5302 5299 5297 5294 5292 5291 5289
5604 5602 5600 5598 5596 5594 5592 5590 5588 5586 5583 5581 5578 5575 5572 5569 5566 5563 5560 5557 5554 5551 5548 5545 5541 5538 5534 5531 5527 5523 5519 5517 5514 5512 5509 5505 5501 5497 5493 5489 5486 5482 5477 5473 5468 5463 5458 5452 5446 5440 5434 5428 5421 5415 5408 5401 5395 5389 5383 5378 5373 5368 5363 5358 5353 5348 5343 5339 5334 5329 5325 5321 5317 5313 5310 5307 5304 5301 5298 5296 5294 5292 5289 5287 5286 5284
5601 5599 5597 5595 5593 5591 5589 5587 5584 5582 5580 5577 5574 5572 5569 5566 5562 5559 5556 5553 5550 5547 5544 5541 5537 5534 5530 5527 5523 5519 5515 5512 5509 5507 5504 5501 5497 5492 5488 5484 5481 5478 5474 5469 5465 5460 5454 5448 5442 5437 5431 5424 5417 5411 5405 5399 5393 5387 5381 5375 5370 5364 5359 5354 5349 5344 5339 5334 5329 5324 5320 5315 5311 5307 5304 5301 5298 5295 5293 5291 5288 5286 5284 5282 5280 5279
5597 5595 5593 5591 5589 5587 5585 5583 5581 5578 5576 5573 5571 5568 5565 5562 5559 5555 5552 5549 5546 5543 5539 5536 5533 5529 5526 5522 5518 5515 5511 5507 5504 5502 5499 5496 5492 5488 5484 5480 5476 5473 5470 5466 5462 5457 5451 5444 5438 5433 5427 5421 5415 5408 5402 5397 5391 5385 5379 5373 5367 5362 5356 5350 5345 5339 5334 5329 5324 5320 5315 5310 5306 5302 5298 5295 5292 5290 5287 5285 5283 5281 5279 5277 5276 5274
5593 5592 5590 5588 5586 5583 5581 5579 5577 5574 5572 5569 5567 5564 5561 5558 5555 5551 5548 5545 5542 5538 5535 5532 5529 5526 5522 5518 5515 5511 5507 5503 5500 5497 5495 5492 5488 5484 5480 5476 5472 5468 5466 5462 5458 5454 5448 5441 5435 5428 5423 5417 5412 5406 5400 5394 5388 5383 5377 5372 5366 5360 5354 5348 5342 5336 5331 5326 5320 5315 5310 5306 5301 5297 5293 5290 5287 5285 5282 5280 5278 5276 5274 5272 5271 5269
5590 5588 5586 5584 5582 5580 5577 5575 5573 5570 5568 5565 5562 5560 5557 5554 5551 5547 5544 5541 5537 5534 5531 5527 5524 5521 5518 5515 5511 5507 5503 5500 5497 5494 5491 5487 5483 5479 5476 5472 5467 5464 5461 5457 5454 5450 5446 5439 5432 5425 5419 5414 5408 5402 5397 5391 5386 5381 5375 5370 5365 5360 5354 5347 5341 5335 5330 5324 5318 5312 5307 5302 5297 5293 5289 5286 5283 5280 5278 5276 5273 5271 5269 5268 5266 5265
5586 5584 5582 5580 5578 5576 5574 5571 5569 5567 5564 5561 5558 5556 5552 5549 5547 5543 5540 5537 5533 5530 5527 5523 5520 5517 5514 5511 5507 5503 5499 5495 5492 5490 5487 5483 5479 5475 5472 5467 5462 5459 5456 5452 5448 5445 5442 5437 5431 5424 5417 5411 5405 5400 5394 5388 5383 5378 5373 5368 5363 5358 5353 5347 5341 5335 5329 5323 5317 5311 5305 5300 5295 5290 5286 5282 5279 5276 5274 5272 5269 5267 5265 5263 5262 5261
5582 5581 5579 5577 5574 5572 5570 5567 5565 5562 5560 5557 5554 5551 5548 5545 5542 5539 5536 5532 5529 5526 5523 5519 5516 5513 5509 5507 5503 5499 5495 5491 5487 5485 5483 5479 5475 5472 5468 5463 5458 5454 5450 5447 5443 5439 5436 5432 5427 5422 5415 5408 5402 5396 5391 5386 5380 5375 5370 5365 5361 5356 5351 5345 5339 5334 5329 5323 5317 5311 5304 5298 5292 5288 5283 5279 5276 5273 5271 5268 5266 5263 5261 5259 5257 5256
5578 5577 5575 5572 5570 5568 5566 5563 5561 5558 5556 5553 5550 5547 5544 5541 5538 5535 5532 5528 5526 5522 5519 5516 5512 5509 5505 5502 5499 5496 5492 5488 5484 5481 5478 5475 5471 5467 5464 5460 5455 5450 5446 5442 5438 5434 5431 5427 5423 5419 5414 5407 5401 5394 5388 5383 5378 5372 5367 5362 5357 5352 5348 5342 5337 5331 5326 5321 5315 5309 5303 5297 5291 5286 5281 5277 5273 5270 5267 5265 5262 5260 5257 5255 5253 5252
5574 5572 5571 5568 5566 5564 5562 5559 5557 5554 5552 5549 5546 5543 5540 5537 5534 5531 5528 5525 5522 5518 5515 5512 5508 5505 5501 5498 5495 5492 5488 5484 5480 5477 5474 5471 5467 5464 5460 5456 5451 5447 5442 5437 5433 5428 5425 5421 5418 5414 5410 5405 5399 5392 5386 5379 5374 5369 5364 5358 5353 5348 5343 5338 5333 5328 5323 5317 5312 5306 5300 5294 5288 5283 5278 5274 5271 5267 5265 5262 5260 5257 5254 5252 5250 5248
5571 5569 5567 5565 5562 5560 5558 5555 5553 5550 5547 5545 5542 5539 5536 5533 5530 5527 5524 5521 5518 5514 5511 5508 5505 5501 5497 5494 5491 5487 5484 5480 5477 5473 5470 5467 5464 5460 5456 5452 5447 5443 5438 5434 5429 5424 5419 5415 5412 5408 5404 5400 5396 5390 5384 5377 5371 5365 5360 5355 5349 5344 5339 5333 5328 5323 5318 5313 5308 5302 5296 5290 5285 5280 5276 5272 5268 5265 5262 5260 5257 5254 5252 5249 5246 5244
5567 5565 5563 5561 5559 5556 5554 5551 5549 5546 5543 5541 5538 5535 5532 5529 5526 5523 5520 5517 5514 5510 5507 5504 5501 5497 5494 5491 5487 5483 5480 5476 5472 5469 5466 5462 5459 5456 5452 5447 5443 5439 5434 5429 5426 5421 5416 5411 5407 5403 5398 5394 5390 5386 5381 5375 5368 5362 5357 5351 5346 5340 5334 5329 5323 5318 5313 5308 5303 5297 5292 5287 5282 5277 5273 5269 5266 5263 5260 5257 5255 5252 5249 5246 5244 5242
5563 5562 5559 5557 5555 5552 5550 5547 5545 5542 5539 5537 5534 5531 5528 5526 5522 5519 5516 5513 5510 5506 5503 5499 5496 5493 5490 5487 5484 5480 5477 5473 5469 5465 5462 5458 5455 5452 5448 5444 5439 5435 5430 5425 5420 5416 5412 5407 5403 5399 5394 5389 5384 5380 5375 5370 5365 5360 5354 5348 5342 5336 5330 5325 5319 5314 5308 5303 5298 5293 5288 5283 5278 5274 5270 5267 5263 5260 5257 5255 5252 5249 5247 5244 5242 5239
5560 5558 5556 5554 5551 5549 5546 5543 5541 5538 5536 5533 5530 5527 5525 5522 5518 5515 5512 5509 5505 5502 5499 5495 5492 5488 5485 5482 5479 5476 5473 5469 5465 5461 5457 5454 5451 5447 5444 5439 5435 5431 5426 5421 5416 5411 5407 5402 5398 5393 5389 5385 5381 5376 5371 5366 5361 5356 5351 5346 5340 5333 5327 5321 5315 5310 5304 5299 5294 5289 5284 5279 5275 5271 5267 5264 5261 5258 5255 5252 5250 5247 5244 5242 5240 5237
5557 5554 5552 5550 5547 5545 5542 5539 5537 5534 5532 5529 5526 5523 5521 5517 5514 5511 5508 5505 5501 5498 5495 5491 5488 5484 5480 5477 5474 5471 5468 5464 5461 5457 5453 5449 5446 5443 5439 5435 5431 5426 5422 5417 5412 5407 5402 5397 5393 5388 5384 5380 5376 5372 5367 5362 5357 5352 5348 5343 5338 5332 5325 5318 5312 5306 5301 5296 5291 5286 5281 5277 5272 5268 5264 5261 5258 5255 5252 5250 5247 5244 5242 5239 5237 5236
5553 5551 5548 5546 5544 5541 5538 5536 5533 5531 5528 5525 5522 5520 5517 5514 5511 5507 5504 5501 5498 5494 5491 5488 5484 5480 5477 5473 5469 5466 5463 5460 5456 5452 5449 5445 5442 5438 5435 5431 5427 5422 5417 5412 5408 5403 5398 5393 5388 5384 5380 5375 5371 5367 5362 5357 5352 5347 5342 5338 5334 5328 5322 5315 5308 5302 5297 5292 5287 5283 5278 5274 5269 5265 5262 5258 5255 5252 5250 5247 5244 5242 5239 5237 5235 5234
5549 5547 5545 5542 5540 5537 5535 5532 5530 5527 5524 5522 5519 5516 5513 5510 5507 5504 5501 5497 5494 5491 5488 5484 5481 5477 5473 5470 5466 5462 5459 5456 5452 5449 5445 5441 5438 5434 5431 5427 5423 5419 5414 5409 5404 5400 5395 5389 5384 5379 5375 5371 5367 5362 5359 5354 5348 5342 5337 5332 5328 5323 5318 5312 5305 5299 5294 5289 5285 5280 5275 5271 5267 5263 5259 5256 5252 5250 5247 5244 5242 5239 5237 5235 5234 5232
5545 5543 5541 5539 5536 5534 5531 5529 5526 5524 5521 5518 5515 5512 5510 5507 5504 5501 5497 5494 5491 5487 5484 5481 5477 5474 5470 5467 5463 5460 5456 5452 5449 5445 5442 5438 5435 5431 5427 5423 5420 5415 5411 5406 5402 5397 5392 5386 5380 5375 5371 5366 5362 5357 5354 5350 5345 5339 5333 5327 5322 5318 5315 5309 5303 5297 5291 5286 5281 5277 5272 5268 5264 5260 5257 5253 5250 5247 5244 5241 5239 5237 5235 5233 5232 5231
5542 5540 5537 5535 5533 5530 5528 5525 5522 5520 5517 5515 5512 5509 5507 5504 5501 5497 5494 5491 5487 5484 5481 5478 5475 5472 5468 5464 5460 5457 5453 5450 5446 5442 5439 5435 5432 5428 5424 5420 5416 5412 5408 5403 5398 5394 5389 5384 5378 5372 5367 5362 5358 5354 5349 5345 5341 5336 5330 5324 5318 5313 5308 5304 5300 5294 5289 5283 5278 5273 5269 5265 5261 5258 5254 5251 5248 5245 5242 5239 5237 5235 5233 5232 5230 5229
5539 5537 5534 5532 5529 5527 5524 5522 5519 5516 5514 5511 5508 5506 5503 5500 5497 5494 5491 5488 5485 5482 5478 5475 5472 5470 5467 5463 5459 5455 5451 5447 5443 5440 5436 5433 5429 5425 5421 5417 5413 5409 5405 5401 5396 5391 5385 5381 5376 5371 5365 5360 5355 5350 5346 5342 5337 5332 5327 5321 5315 5310 5304 5300 5296 5291 5286 5281 5276 5271 5266 5262 5259 5255 5252 5249 5246 5242 5240 5237 5235 5233 5232 5230 5229 5228
5535 5533 5531 5528 5526 5523 5521 5518 5516 5513 5510 5507 5505 5502 5499 5497 5494 5491 5488 5485 5482 5479 5476 5473 5470 5467 5464 5461 5457 5453 5449 5445 5441 5437 5433 5430 5427 5423 5419 5415 5410 5406 5402 5398 5394 5389 5383 5378 5372 5368 5363 5358 5353 5347 5342 5337 5333 5329 5325 5320 5314 5308 5303 5298 5293 5288 5283 5279 5274 5269 5264 5260 5256 5253 5250 5247 5244 5241 5238 5236 5233 5232 5230 5229 5228 5227
5532 5529 5527 5525 5522 5520 5517 5515 5512 5509 5507 5504 5501 5498 5496 5493 5490 5487 5485 5482 5479 5476 5473 5470 5467 5464 5461 5457 5455 5451 5447 5443 5439 5435 5431 5427 5423 5420 5416 5412 5408 5404 5399 5395 5391 5386 5382 5376 5371 5365 5360 5355 5351 5346 5340 5335 5330 5326 5322 5318 5313 5307 5301 5295 5290 5285 5281 5276 5272 5267 5262 5258 5254 5251 5248 5245 5242 5239 5237 5234 5232 5231 5229 5228 5227 5227
5529 5527 5524 5522 5519 5517 5514 5512 5509 5506 5503 5501 5498 5495 5492 5490 5487 5484 5482 5479 5476 5473 5470 5467 5465 5462 5458 5455 5452 5448 5445 5441 5437 5433 5429 5425 5421 5417 5413 5410 5406 5402 5397 5393 5388 5383 5379 5374 5369 5363 5358 5353 5348 5343 5339 5334 5329 5324 5320 5316 5312 5306 5300 5293 5288 5282 5278 5273 5269 5264 5259 5255 5252 5249 5246 5243 5241 5238 5235 5233 5231 5230 5228 5227 5227 5227
5526 5523 5521 5518 5516 5513 5511 5508 5506 5503 5500 5497 5495 5492 5489 5487 5484 5481 5478 5476 5473 5471 5468 5465 5462 5459 5455 5452 5449 5446 5442 5438 5435 5431 5427 5422 5419 5415 5411 5407 5403 5399 5395 5391 5387 5382 5377 5372 5366 5361 5356 5351 5346 5342 5338 5333 5328 5323 5319 5314 5310 5304 5298 5292 5287 5281 5275 5271 5266 5261 5257 5253 5250 5247 5244 5242 5239 5237 5234 5232 5230 5229 5228 5227 5227 5227
5523 5520 5518 5515 5513 5510 5507 5505 5502 5500 5497 5494 5492 5489 5486 5484 5481 5479 5476 5473 5471 5468 5465 5462 5459 5456 5452 5449 5446 5442 5439 5436 5432 5428 5425 5421 5417 5412 5409 5405 5401 5397 5393 5389 5385 5380 5376 5371 5366 5360 5355 5349 5344 5340 5336 5332 5327 5322 5317 5312 5307 5302 5296 5291 5285 5279 5273 5268 5263 5258 5254 5251 5247 5244 5242 5240 5238 5236 5234 5232 5230 5228 5227 5227 5227 5228
5520 5517 5515 5512 5510 5507 5504 5502 5499 5497 5494 5492 5489 5486 5483 5481 5478 5476 5473 5471 5468 5465 5462 5459 5456 5453 5449 5446 5443 5439 5436 5432 5429 5426 5422 5418 5414 5410 5407 5403 5399 5395 5391 5387 5383 5379 5374 5370 5365 5360 5354 5349 5343 5337 5333 5330 5326 5321 5316 5311 5305 5300 5293 5288 5282 5276 5271 5265 5261 5256 5252 5249 5246 5243 5240 5238 5237 5235 5233 5232 5230 5228 5228 5227 5227 5228
5516 5514 5512 5509 5507 5504 5501 5499 5497 5494 5491 5489 5486 5484 5481 5478 5475 5473 5471 5468 5465 5462 5460 5457 5453 5450 5447 5443 5440 5437 5433 5430 5426 5422 5419 5415 5412 5408 5404 5401 5397 5393 5389 5385 5382 5378 5373 5369 5364 5358 5353 5347 5341 5336 5330 5326 5322 5317 5313 5309 5303 5297 5291 5285 5280 5274 5268 5263 5258 5254 5250 5247 5244 5241 5239 5237 5235 5234 5232 5231 5230 5228 5228 5228 5228 5228
5513 5511 5508 5506 5503 5501 5498 5496 5493 5491 5488 5486 5484 5481 5478 5476 5473 5471 5468 5465 5462 5460 5457 5454 5451 5447 5444 5441 5437 5434 5431 5427 5423 5420 5416 5413 5409 5405 5402 5398 5395 5391 5387 5383 5379 5376 5372 5368 5363 5358 5352 5345 5338 5333 5327 5322 5317 5313 5309 5305 5301 5295 5288 5282 5277 5272 5267 5261 5257 5252 5248 5245 5242 5240 5238 5236 5234 5233 5232 5230 5229 5228 5228 5228 5228 5229